Date String (YYYY-MM-DD hh:mm:ss) UTC,Instrument flags,absolute air pressure of the measurement (hPa),sample flow rate (lpm),inlet stack bypass flow (lpm),air temperature of the measurement (°C),ambient temperature measured by the external sensor (°C),aerosol sample conditioner tube jacket temperature (°C),OPC LED temperature (°C),internal box temperature (°C),relative humidity of the measurement (%),span deviation,mass concentration of particles derived from Lorenz-Mie calculation of OPC scattering (μg/m³),mass concentration of particles derived from Lorenz-Mie calculation of OPC scattering (μg/m³),mass concentration of particles derived from Lorenz-Mie calculation of OPC scattering (μg/m³)
DateTimeUTC,F1_M11,P_M11,Q1_M11,Q2_M11,T1_M11,T2_M11,T3_M11,T4_M11,T5_M11,U1_M11,ZSPAN_M11,X0_M11,X2_M11,X1_M11
2023-06-30 17:00:00,SystemResetWarning,0833.2,5.00,000.00,029.8,027.8,000.0,038.4,031.2,31.8,0000.0,0009.32,0003.57,0002.83
2023-06-30 17:01:00,SystemResetWarning,0833.2,5.00,000.00,029.8,028.0,000.0,038.4,031.3,32.0,0000.0,0010.57,0003.60,0002.85
2023-06-30 17:02:00,SystemResetWarning,0833.2,5.00,000.00,029.8,028.1,000.0,038.4,031.3,32.4,0000.0,0010.84,0003.61,0002.88
2023-06-30 17:03:00,SystemResetWarning,0833.2,5.00,000.00,029.8,028.2,000.0,038.4,031.3,32.3,0000.0,0010.75,0003.62,0002.90
2023-06-30 17:04:00,SystemResetWarning,0833.2,5.01,000.00,029.8,028.3,000.0,038.4,031.4,31.6,0000.0,0010.84,0003.62,0002.91
2023-06-30 17:05:00,SystemResetWarning,0833.2,5.01,000.00,029.8,028.4,000.0,038.4,031.4,31.7,0000.0,0011.17,0003.66,0002.93
2023-06-30 17:06:00,SystemResetWarning,0833.2,5.00,000.00,029.8,028.5,000.0,038.4,031.4,31.3,0000.0,0011.38,0003.61,0002.93
2023-06-30 17:07:00,SystemResetWarning,0833.2,4.99,000.00,029.9,028.5,000.0,038.4,031.4,30.2,0000.0,0011.28,0003.59,0002.92
2023-06-30 17:08:00,SystemResetWarning,0833.2,4.99,000.00,029.9,028.6,000.0,038.5,031.4,30.2,0000.0,0011.86,0003.60,0002.93
2023-06-30 17:09:00,SystemResetWarning,0833.2,4.99,000.00,029.9,028.6,000.0,038.5,031.5,30.4,0000.0,0011.52,0003.58,0002.92
2023-06-30 17:10:00,SystemResetWarning,0833.2,5.01,000.00,029.9,028.7,000.0,038.5,031.5,30.2,0000.0,0011.17,0003.56,0002.93
2023-06-30 17:11:00,SystemResetWarning,0833.3,5.00,000.00,029.9,028.7,000.0,038.5,031.5,30.6,0000.0,0010.98,0003.53,0002.92
2023-06-30 17:12:00,SystemResetWarning,0833.3,5.01,000.00,030.0,028.7,000.0,038.5,031.5,31.1,0000.0,0010.33,0003.53,0002.94
2023-06-30 17:13:00,SystemResetWarning,0833.3,5.01,000.00,030.0,028.8,000.0,038.5,031.6,31.1,0000.0,0010.97,0003.55,0002.97
2023-06-30 17:14:00,SystemResetWarning,0833.3,5.00,000.00,030.0,028.8,000.0,038.5,031.6,31.3,0000.0,0011.00,0003.62,0003.02
2023-06-30 17:15:00,SystemResetWarning,0833.4,4.99,000.00,030.0,028.8,000.0,038.5,031.6,31.2,0000.0,0010.91,0003.67,0003.05
2023-06-30 17:16:00,SystemResetWarning,0833.4,5.00,000.00,030.1,028.9,000.0,038.5,031.6,31.1,0000.0,0010.89,0003.69,0003.08
2023-06-30 17:17:00,SystemResetWarning,0833.4,4.99,000.00,030.1,028.2,000.0,038.5,031.6,30.7,0000.0,0010.42,0003.73,0003.10
2023-06-30 17:18:00,SystemResetWarning,0833.3,5.00,000.00,030.0,026.3,000.0,038.4,031.4,31.2,0000.0,0010.98,0003.78,0003.12
2023-06-30 17:19:00,SystemResetWarning,0833.3,5.00,000.00,029.9,025.6,000.0,038.3,031.1,31.3,0000.0,0010.46,0003.79,0003.12
2023-06-30 17:20:00,SystemResetWarning,0833.3,5.01,000.00,029.8,025.7,000.0,038.3,030.9,31.7,0000.0,0010.68,0003.81,0003.14
2023-06-30 17:21:00,SystemResetWarning,0833.3,5.02,000.00,029.7,026.1,000.0,038.3,030.9,31.4,0000.0,0010.90,0003.83,0003.15
2023-06-30 17:22:00,SystemResetWarning,0833.3,4.99,000.00,029.7,026.5,000.0,038.3,030.9,31.1,0000.0,0011.51,0003.88,0003.15
2023-06-30 17:23:00,SystemResetWarning,0833.3,5.00,000.00,029.6,026.8,000.0,038.3,031.0,30.9,0000.0,0011.03,0003.87,0003.15
2023-06-30 17:24:00,SystemResetWarning,0833.3,4.99,000.00,029.6,027.1,000.0,038.3,031.1,30.9,0000.0,0010.70,0003.90,0003.15
2023-06-30 17:25:00,SystemResetWarning,0833.3,4.99,000.00,029.6,027.4,000.0,038.3,031.1,30.5,0000.0,0011.03,0003.91,0003.15
2023-06-30 17:26:00,SystemResetWarning,0833.3,5.01,000.00,029.7,027.7,000.0,038.3,031.2,31.0,0000.0,0011.25,0003.92,0003.15
2023-06-30 17:27:00,SystemResetWarning,0833.3,5.01,000.00,029.7,027.9,000.0,038.3,031.2,30.4,0000.0,0011.74,0003.93,0003.15
2023-06-30 17:28:00,SystemResetWarning,0833.3,5.00,000.00,029.7,028.0,000.0,038.3,031.2,30.9,0000.0,0012.02,0003.94,0003.15
2023-06-30 17:29:00,SystemResetWarning,0833.3,5.00,000.00,029.7,028.2,000.0,038.3,031.3,31.1,0000.0,0012.13,0003.93,0003.15
2023-06-30 17:30:00,SystemResetWarning,0833.4,4.98,000.00,029.7,028.3,000.0,038.3,031.3,31.2,0000.0,0012.12,0003.95,0003.16
2023-06-30 17:31:00,SystemResetWarning,0833.4,4.99,000.00,029.7,028.4,000.0,038.3,031.3,31.1,0000.0,0012.04,0003.97,0003.17
2023-06-30 17:32:00,SystemResetWarning,0833.4,5.00,000.00,029.8,028.4,000.0,038.3,031.4,31.1,0000.0,0012.24,0004.00,0003.19
2023-06-30 17:33:00,SystemResetWarning,0833.6,5.01,000.00,029.8,028.5,000.0,038.3,031.4,31.8,0000.0,0012.19,0004.03,0003.22
2023-06-30 17:34:00,SystemResetWarning,0833.7,5.00,000.00,029.8,028.6,000.0,038.4,031.4,31.9,0000.0,0011.71,0004.09,0003.24
2023-06-30 17:35:00,SystemResetWarning,0833.7,5.00,000.00,029.8,028.6,000.0,038.4,031.4,31.9,0000.0,0011.60,0004.11,0003.26
2023-06-30 17:36:00,SystemResetWarning,0833.8,5.00,000.00,029.9,028.7,000.0,038.4,031.5,31.7,0000.0,0010.92,0004.09,0003.27
2023-06-30 17:37:00,SystemResetWarning,0833.9,5.00,000.00,029.9,028.7,000.0,038.4,031.5,32.0,0000.0,0010.82,0004.10,0003.29
2023-06-30 17:38:00,SystemResetWarning,0833.9,5.00,000.00,029.9,028.8,000.0,038.4,031.5,32.8,0000.0,0010.18,0004.10,0003.31
2023-06-30 17:39:00,SystemResetWarning,0833.8,5.00,000.00,029.9,028.8,000.0,038.4,031.6,32.1,0000.0,0009.67,0004.10,0003.33
2023-06-30 17:40:00,SystemResetWarning,0833.9,5.00,000.00,030.0,028.8,000.0,038.5,031.6,32.2,0000.0,0009.82,0004.11,0003.34
2023-06-30 17:41:00,SystemResetWarning,0833.8,5.00,000.00,030.0,028.8,000.0,038.5,031.6,32.2,0000.0,0011.14,0004.09,0003.34
2023-06-30 17:42:00,SystemResetWarning,0833.8,5.00,000.00,030.0,028.9,000.0,038.5,031.6,32.3,0000.0,0011.59,0004.11,0003.33
2023-06-30 17:43:00,SystemResetWarning,0833.7,4.99,000.00,030.0,028.4,000.0,038.5,031.6,32.0,0000.0,0012.35,0004.09,0003.31
2023-06-30 17:44:00,SystemResetWarning,0833.7,4.99,000.00,030.0,026.6,000.0,038.4,031.4,31.1,0000.0,0012.56,0004.05,0003.29
2023-06-30 17:45:00,SystemResetWarning,0833.7,5.01,000.00,029.9,025.8,000.0,038.3,031.2,31.5,0000.0,0012.92,0004.02,0003.29
2023-06-30 17:46:00,SystemResetWarning,0833.7,5.01,000.00,029.8,025.9,000.0,038.3,031.0,31.3,0000.0,0012.98,0004.04,0003.30
2023-06-30 17:47:00,SystemResetWarning,0833.8,5.00,000.00,029.7,026.2,000.0,038.3,030.9,31.8,0000.0,0013.53,0004.05,0003.32
2023-06-30 17:48:00,SystemResetWarning,0833.8,4.99,000.00,029.7,026.6,000.0,038.3,031.0,31.7,0000.0,0013.42,0004.05,0003.32
2023-06-30 17:49:00,SystemResetWarning,0833.8,5.01,000.00,029.7,026.9,000.0,038.3,031.1,32.2,0000.0,0013.51,0004.06,0003.33
2023-06-30 17:50:00,SystemResetWarning,0833.8,5.00,000.00,029.7,027.3,000.0,038.3,031.1,31.8,0000.0,0013.80,0004.07,0003.34
2023-06-30 17:51:00,SystemResetWarning,0833.8,5.01,000.00,029.7,027.5,000.0,038.3,031.1,31.3,0000.0,0013.88,0004.15,0003.37
2023-06-30 17:52:00,SystemResetWarning,0833.8,5.00,000.00,029.7,027.7,000.0,038.3,031.2,31.3,0000.0,0012.66,0004.25,0003.42
2023-06-30 17:53:00,SystemResetWarning,0833.7,5.00,000.00,029.7,027.9,000.0,038.3,031.2,31.7,0000.0,0012.14,0004.31,0003.48
2023-06-30 17:54:00,SystemResetWarning,0833.7,5.00,000.00,029.7,028.0,000.0,038.3,031.2,31.5,0000.0,0011.75,0004.37,0003.53
2023-06-30 17:55:00,SystemResetWarning,0833.7,4.99,000.00,029.7,028.2,000.0,038.3,031.3,31.8,0000.0,0012.30,0004.44,0003.58
2023-06-30 17:56:00,SystemResetWarning,0833.7,4.99,000.00,029.7,028.3,000.0,038.3,031.3,31.6,0000.0,0012.77,0004.47,0003.62
2023-06-30 17:57:00,SystemResetWarning,0833.6,5.01,000.00,029.8,028.4,000.0,038.3,031.3,32.0,0000.0,0012.40,0004.47,0003.65
2023-06-30 17:58:00,SystemResetWarning,0833.6,5.00,000.00,029.8,028.5,000.0,038.3,031.4,30.1,0000.0,0012.04,0004.50,0003.67
2023-06-30 17:59:00,SystemResetWarning,0833.5,5.01,000.00,029.8,028.5,000.0,038.3,031.4,28.6,0000.0,0011.66,0004.46,0003.68
